2021-033G (48254 NORAD) Tracking and Keplerian Element Data

This shows tracking and keplerian element data for the satellite.

Feedback or suggestion? Click here.




ElementValue
Catalog48254
Name2021-033G
Epoch Orbit454
Epoch Day147.12271255
Epoch Year2021
RAAN222.4397
Inclination97.3932
Eccentricity0.001261
Argument of Perigee162.3001
Mean Anonmoly257.5414
Mean Motion15.21284041
Decay Rate8.95E-06
L11 48254U 21033G 21147.12271255 .00000895 00000-0 43063-4 0 9994
L22 48254 97.3932 222.4397 0012610 162.3001 257.5414 15.21284041 4549

Live tracking and technical data element details for 2021-033G (NORAD 48254). 2021-033G can be tracked NOW for your location showing map with azimuth and elevation plus other details from your city location.

Track the satellite on the map from your city or location and see movement details for azimuth, elevation, latitude, longitude, range, height, and movement on the map or in text.







IsCatalogInMostPopularTable: catalog: 48254, numindb: 34
Update: records affected: 1



GetName: 48254 2021-033G

Hit Count: updated at: Sat, 31 Jul 2021 15:41:38 GMT